Temperature
16 16 16 16 16 16 16 16 16 16 16 16 16 16 16 17 17 17 17 17 17 17 17 17 17 18 18 18 17 17 18 18 17 18 18 18 18 18 18 18 18 18 18
16 16 16 15 15 15 15 16 16 16 16 16 16 16 16 16 16 16 16 17 17 17 17 17 17 17 17 17 17 17 17 17 17 17 17 17 17 18 18 18 18 18 18
16 16 15 15 15 15 15 15 15 16 16 16 16 16 16 16 16 16 16 16 16 17 17 17 17 17 17 17 17 17 17 17 17 17 17 17 17 17 17 17 17 17 17
16 15 15 15 15 15 15 15 15 15 15 15 15 16 16 16 16 16 16 16 16 16 17 17 17 17 17 17 17 17 17 17 17 17 17 17 17 17 17 17 17 17 17
15 15 15 15 15 15 15 15 15 15 15 15 15 15 16 16 16 16 16 16 16 16 16 17 17 17 17 17 17 17 17 17 17 17 17 17 17 17 17 17 17 17 17
15 15 15 15 15 14 14 14 14 15 15 15 15 15 15 16 16 16 16 16 16 16 16 16 17 17 17 17 17 17 17 17 17 17 17 17 17 17 17 17 17 17 17
15 15 15 15 14 14 14 14 14 14 14 15 15 15 16 16 16 16 16 16 16 16 16 16 16 16 17 17 17 17 17 17 17 17 17 17 17 17 17 17 17 17 17
15 15 14 14 14 14 14 14 14 14 14 14 15 15 15 15 15 16 16 16 16 16 16 16 16 16 16 17 17 17 17 17 17 17 17 17 17 17 17 17 17 17 17
15 15 14 14 14 14 14 14 14 14 14 14 14 15 15 15 15 15 15 16 16 16 16 16 16 16 16 16 17 17 17 17 17 17 17 17 17 17 17 17 17 17 17
15 15 14 14 14 14 14 14 14 14 14 14 14 14 15 15 15 15 15 15 15 15 16 16 16 16 16 16 16 16 17 17 17 17 17 17 17 17 17 17 17 17 17
15 15 15 14 14 14 14 14 14 14 14 14 14 14 14 15 15 15 15 15 15 15 15 15 15 15 15 16 16 16 16 16 17 16 17 17 17 17 17 17 17 17 17
15 15 15 14 14 14 14 14 14 14 14 14 14 14 14 14 14 15 15 15 15 15 15 15 15 15 15 15 16 16 16 16 16 16 16 16 16 17 17 17 17 17 17
15 15 15 14 14 14 14 14 14 14 14 14 14 14 14 14 14 14 14 15 15 15 15 15 15 15 15 15 15 16 16 16 16 16 16 16 16 16 16 16 16 16 17
15 15 15 14 14 14 14 14 14 14 14 14 14 14 14 14 14 14 14 14 15 15 15 15 15 15 15 15 15 16 16 16 16 16 16 16 16 16 16 16 16 16 16
15 15 15 15 14 14 14 14 14 14 13 13 14 14 14 14 14 14 14 14 14 14 15 15 15 15 15 15 15 15 16 16 16 16 16 16 16 16 16 16 16 16 16
15 15 15 15 15 14 14 14 14 14 13 13 13 14 14 14 14 14 14 14 14 14 14 15 15 15 15 15 15 15 15 16 16 16 16 16 16 16 16 16 16 16 16
16 15 15 15 15 14 14 14 14 14 14 14 13 13 13 13 14 14 14 14 14 14 14 14 14 14 14 14 15 15 15 15 15 15 15 16 16 16 16 16 16 16 16
16 15 15 15 15 15 14 14 14 14 14 14 14 13 13 14 14 14 14 14 14 14 14 14 14 14 14 14 14 14 14 15 15 15 15 15 15 15 15 15 15 15 15
16 15 15 15 15 15 14 14 14 14 14 14 14 14 14 14 14 14 13 13 14 14 14 14 14 14 14 14 14 14 14 14 14 15 15 15 15 15 15 15 15 15 15
15 15 15 15 15 15 15 14 14 14 14 14 14 14 14 14 14 14 14 13 13 13 14 14 14 14 14 14 14 14 14 14 14 14 14 14 15 15 15 15 15 15 15
15 15 15 15 15 15 15 15 15 14 14 14 14 14 14 14 14 14 14 14 13 13 13 13 13 14 14 14 14 14 14 14 14 14 14 14 14 14 14 14 14 14 14
15 15 15 15 15 15 15 15 14 14 14 14 14 14 14 14 14 14 14 14 14 13 13 13 13 13 13 14 14 14 14 14 13 14 14 14 14 14 14 14 14 14 14
15 15 15 14 14 14 14 14 14 14 14 14 14 14 14 14 14 14 14 14 14 13 13 13 13 13 13 13 13 13 13 13 14 14 14 14 14 13 13 14 14 14 14
14 14 14 14 14 14 14 14 14 14 14 14 14 14 14 14 14 14 14 14 14 13 13 13 13 13 13 13 13 13 13 13 13 13 13 13 13 13 13 13 13 13 13
14 14 14 14 14 14 14 14 14 14 14 14 14 14 14 14 14 14 14 13 13 13 13 13 13 13 13 13 13 13 13 13 13 13 13 13 13 13 13 13 13 13 13
14 14 13 13 13 13 13 13 13 13 13 13 13 13 13 13 14 14 14 13 13 13 13 13 13 13 13 13 13 13 13 13 13 13 13 13 13 13 12 12 12 12 12
Wind_Speed
3 3 2 2 3 4 3 3 3 4 4 3 3 2 2 2 1 1 4 7 5 4 4 3 3 2 2 3 4 5 7 8 8 8 10 11 12 12 13 13 14 15 16
2 2 3 3 2 3 3 3 3 3 2 2 2 2 2 2 1 0 3 5 5 5 5 5 4 3 3 3 5 6 7 8 8 8 9 11 11 12 13 13 14 14 14
3 3 4 3 3 5 5 3 4 3 3 2 2 1 1 2 1 1 0 4 5 6 6 5 5 4 4 5 6 7 8 8 9 8 9 10 10 12 12 13 13 13 13
6 3 4 4 4 4 3 3 3 3 3 3 2 2 1 1 1 1 1 2 4 4 7 7 6 5 5 6 7 8 8 9 9 8 8 9 10 11 12 13 13 12 12
7 4 2 3 5 3 4 5 3 3 3 3 3 1 1 1 1 1 1 1 2 4 6 7 8 7 6 7 7 8 8 9 9 8 8 10 11 11 12 12 13 13 12
6 4 3 3 4 3 4 4 4 3 2 3 3 2 1 1 1 1 2 1 1 2 5 6 7 7 7 7 8 8 9 9 9 9 10 11 11 11 12 12 13 13 13
5 3 3 3 3 3 4 4 4 4 3 3 2 2 2 1 1 0 0 1 1 1 3 4 4 6 7 8 8 9 9 10 10 9 10 11 11 11 11 11 12 12 12
4 4 4 3 3 2 3 4 3 3 3 3 2 1 2 2 2 0 0 0 0 1 1 2 4 5 7 7 8 9 9 10 11 11 11 12 12 12 12 12 12 12 12
2 3 4 4 4 3 2 3 3 3 3 3 2 1 1 1 2 1 0 0 1 1 0 0 1 3 7 8 8 8 9 10 10 11 12 12 13 12 12 12 12 12 12
1 2 3 3 3 3 3 3 3 2 2 3 3 2 1 0 0 2 2 1 1 1 1 1 2 2 4 7 8 9 9 9 10 10 12 12 12 12 12 12 12 12 12
1 0 1 2 3 2 2 3 3 3 2 2 2 2 2 2 1 0 1 1 1 0 1 1 1 2 3 6 7 8 10 9 9 10 11 12 12 12 12 12 13 12 13
1 1 1 1 2 2 2 2 2 2 1 2 2 2 2 1 1 1 1 1 0 1 1 1 1 1 3 5 6 8 9 10 10 9 9 10 11 11 12 12 12 13 13
0 0 1 1 1 2 2 2 2 2 1 1 2 2 2 2 1 1 1 1 1 1 1 1 1 1 2 5 5 9 10 10 9 9 9 9 10 11 11 12 11 12 13
0 1 1 0 0 1 2 2 2 2 2 2 2 2 1 2 1 1 0 0 1 1 0 1 1 1 2 4 4 9 9 11 10 9 9 9 10 11 11 11 11 11 12
1 1 1 1 1 0 1 2 2 3 2 2 3 3 1 1 1 1 0 0 1 0 1 1 1 1 2 3 5 6 8 9 10 10 10 10 9 9 9 10 10 10 11
1 1 2 2 1 1 1 1 2 2 2 2 2 2 2 1 1 1 1 1 1 2 1 1 1 2 2 2 4 4 7 10 11 11 11 11 11 10 9 9 9 10 10
3 2 2 2 2 1 1 2 2 2 2 3 2 2 2 1 2 1 1 1 1 1 2 1 0 1 2 1 1 2 5 8 9 12 12 11 11 11 11 10 10 10 10
3 3 3 2 2 2 2 2 3 2 2 3 3 2 2 2 2 2 1 1 1 1 2 2 1 0 1 2 2 2 2 5 6 11 13 13 12 12 12 11 10 10 10
3 3 3 2 2 2 2 3 3 3 3 3 3 3 3 2 2 2 2 2 2 2 1 2 2 1 1 1 1 2 2 2 4 9 11 12 12 12 12 11 11 10 10
3 3 3 3 2 2 2 2 3 4 4 4 3 3 3 2 3 3 3 3 2 2 2 2 2 2 2 2 1 2 1 2 2 4 5 8 10 12 12 12 11 11 11
4 4 3 3 3 2 1 2 3 5 5 4 3 3 3 4 3 2 2 2 2 2 2 2 3 2 2 2 2 2 2 2 2 2 3 3 4 5 8 11 12 12 11
3 3 4 4 3 2 1 1 3 4 5 5 5 4 4 5 6 6 6 5 4 3 3 2 2 3 3 3 3 3 2 2 2 2 3 3 4 4 5 8 11 13 12
3 4 4 4 3 3 3 3 5 5 6 6 5 5 5 4 5 5 7 8 7 8 7 4 3 4 3 3 3 3 3 3 3 3 3 2 3 3 3 7 11 12 12
3 3 4 4 4 4 5 4 5 6 6 6 5 5 5 4 4 3 4 5 6 7 9 7 5 5 3 3 3 4 4 3 2 2 4 3 2 2 2 5 10 11 11
4 4 4 5 5 5 6 6 5 4 6 7 5 5 4 3 4 4 4 5 5 6 8 8 7 7 6 5 4 2 2 2 2 2 3 3 2 2 1 2 6 10 11
4 4 5 5 5 5 6 7 6 4 5 6 5 4 5 5 4 4 4 5 6 5 4 5 6 7 6 7 8 6 5 4 3 3 3 4 3 3 1 1 3 5 6
Wind_Direction
3 358 345 5 345 350 347 332 322 336 345 349 341 342 358 344 21 70 140 152 154 164 171 167 154 139 124 104 102 105 103 113 115 120 123 125 126 129 129 133 136 137 141
7 357 352 359 351 339 328 321 323 336 333 327 326 337 338 322 5 64 160 152 162 173 173 164 154 152 145 120 114 117 115 118 120 121 123 125 128 131 132 135 137 139 139
10 18 357 359 348 342 343 347 339 339 322 326 330 320 340 317 316 301 216 169 169 181 176 167 152 149 153 137 122 122 123 125 125 125 127 130 134 135 136 136 137 139 140
22 28 1 349 341 352 352 346 342 343 341 344 334 326 341 316 291 273 295 217 172 169 171 169 157 147 148 142 134 126 125 128 129 129 133 139 139 140 139 139 140 142 142
12 27 350 334 359 7 354 344 4 353 341 336 313 306 342 334 332 333 321 302 147 145 153 164 160 154 151 149 143 139 131 134 134 133 136 144 142 139 140 142 146 145 144
14 13 340 10 8 4 351 345 352 342 317 303 315 343 332 284 5 13 328 350 49 130 146 151 160 161 157 155 155 151 148 140 140 137 132 135 139 143 143 144 149 150 149
18 8 359 2 7 6 351 357 352 340 333 335 341 334 325 286 121 153 305 332 1 68 128 143 159 160 158 160 160 156 156 154 151 147 143 141 143 147 147 148 152 155 154
18 4 2 353 0 357 2 352 348 346 327 337 343 349 342 354 354 168 192 200 66 54 57 162 169 156 155 151 161 165 164 162 162 161 159 155 155 157 157 156 155 157 159
29 14 355 351 347 359 359 337 355 355 323 324 354 19 0 327 314 318 298 96 88 76 323 42 123 125 146 148 150 162 168 169 168 171 169 165 165 167 167 165 162 162 165
59 23 352 339 342 352 359 355 19 344 333 325 330 330 308 74 41 333 332 16 85 85 40 38 68 78 129 137 141 154 161 166 171 173 173 173 174 175 175 176 174 172 171
170 118 10 334 337 346 359 5 356 349 344 334 327 327 336 338 284 191 302 317 4 34 110 85 79 66 102 131 137 151 160 165 173 176 178 179 182 184 183 182 182 180 180
222 186 209 314 336 349 342 343 329 335 328 330 326 329 341 341 332 354 304 291 245 241 135 111 114 115 113 123 145 153 162 166 169 171 173 179 182 185 188 187 186 185 185
262 313 353 340 357 347 333 341 338 321 315 331 319 315 323 317 323 344 5 321 325 257 146 127 145 136 131 133 148 163 169 168 168 173 176 179 182 183 188 190 189 191 192
296 49 318 331 356 335 335 350 333 328 337 333 319 312 294 308 321 348 348 33 341 322 161 171 147 144 129 138 162 169 172 173 173 174 177 179 181 181 185 190 190 194 195
297 347 313 306 268 267 316 342 322 324 331 328 318 318 308 288 296 326 335 176 164 300 304 219 137 161 147 140 155 171 168 178 178 177 180 182 183 181 181 185 192 197 199
297 285 286 289 273 231 228 230 287 303 314 302 290 300 309 298 298 263 253 270 225 189 230 277 192 170 170 155 166 179 175 179 184 183 183 184 185 186 186 189 193 198 202
259 258 267 287 296 277 256 241 247 260 278 286 283 262 254 261 284 280 250 255 262 183 204 269 294 159 154 155 152 194 179 180 187 191 190 189 189 192 194 197 200 203 206
261 262 259 254 273 281 278 267 264 260 251 262 269 267 256 241 247 265 263 250 254 234 198 222 253 238 192 183 180 211 199 185 180 190 192 193 193 195 194 195 198 201 203
274 273 271 266 263 267 266 271 273 268 256 245 244 249 251 236 239 231 225 237 251 254 221 207 235 232 241 213 191 221 220 196 192 185 187 192 193 193 192 192 193 196 195
297 296 293 287 281 283 288 302 297 284 271 256 239 229 232 223 238 244 233 234 234 240 243 219 217 221 224 230 192 211 228 217 209 179 174 184 192 194 193 191 191 193 191
300 302 301 300 296 292 312 351 326 308 300 283 261 233 221 208 208 220 233 248 256 243 240 220 218 217 216 197 203 205 205 224 220 176 158 172 176 186 191 195 193 192 189
295 304 301 296 291 297 311 297 293 299 299 293 286 263 228 214 210 219 225 220 214 226 237 232 232 221 216 201 196 195 190 181 234 203 159 189 174 185 186 185 189 190 189
284 284 282 282 275 268 249 265 275 279 279 280 282 280 275 238 208 213 225 232 235 234 227 219 231 237 222 206 190 199 200 193 209 200 158 199 189 183 173 171 176 180 184
289 271 270 273 266 256 239 245 268 268 272 272 269 269 270 258 235 225 223 224 231 231 229 226 230 235 227 205 191 196 201 210 236 210 158 179 187 175 150 150 170 174 180
289 285 277 270 267 258 240 238 246 267 271 272 268 270 271 263 252 241 243 245 243 238 225 220 215 219 215 213 192 167 192 186 216 220 183 164 172 154 143 155 175 180 181
272 277 281 271 267 261 251 241 230 254 269 274 268 257 256 256 272 249 241 245 247 246 228 219 221 227 222 218 207 195 196 194 195 206 195 161 165 142 143 160 154 170 177
Height
1520 1519 1518 1517 1517 1516 1515 1515 1514 1514 1514 1513 1513 1513 1514 1514 1515 1515 1515 1516 1517 1518 1518 1519 1520 1520 1521 1521 1520 1520 1520 1520 1521 1523 1524 1526 1528 1531 1533 1535 1538 1539 1543
1520 1518 1518 1517 1516 1515 1515 1514 1514 1513 1513 1513 1513 1513 1513 1513 1514 1514 1515 1515 1516 1517 1518 1519 1519 1520 1520 1521 1521 1521 1521 1522 1523 1525 1526 1528 1530 1533 1535 1538 1540 1542 1545
1519 1518 1517 1517 1516 1515 1514 1514 1513 1513 1513 1513 1512 1512 1512 1512 1513 1513 1514 1514 1515 1516 1517 1518 1519 1519 1520 1521 1521 1522 1522 1523 1524 1526 1527 1529 1532 1534 1537 1539 1542 1544 1547
1519 1518 1517 1516 1515 1515 1514 1513 1512 1512 1512 1511 1511 1511 1511 1511 1512 1512 1513 1513 1514 1515 1516 1517 1518 1519 1520 1521 1522 1522 1523 1524 1525 1526 1527 1529 1532 1535 1538 1540 1543 1545 1548
1519 1517 1516 1516 1515 1514 1513 1513 1512 1511 1511 1510 1510 1510 1511 1511 1511 1511 1512 1512 1514 1514 1515 1516 1517 1519 1520 1521 1522 1523 1524 1525 1525 1526 1525 1526 1531 1535 1538 1541 1544 1547 1549
1518 1517 1517 1516 1515 1514 1513 1512 1511 1511 1510 1510 1510 1510 1510 1510 1510 1510 1511 1512 1513 1514 1515 1515 1517 1518 1519 1521 1522 1523 1524 1526 1526 1527 1527 1527 1532 1536 1539 1542 1545 1547 1550
1518 1517 1516 1515 1514 1513 1512 1511 1511 1510 1510 1510 1509 1509 1509 1509 1509 1510 1510 1511 1512 1513 1514 1515 1516 1517 1519 1520 1522 1523 1524 1526 1527 1529 1530 1531 1534 1537 1540 1543 1545 1548 1550
1518 1517 1516 1515 1514 1513 1512 1511 1510 1510 1510 1510 1510 1509 1509 1510 1510 1510 1510 1511 1511 1512 1513 1514 1515 1517 1518 1519 1521 1523 1524 1526 1528 1529 1531 1533 1535 1538 1540 1543 1545 1548 1550
1518 1517 1516 1515 1514 1513 1512 1511 1510 1510 1509 1510 1510 1510 1510 1510 1510 1510 1510 1510 1511 1512 1512 1514 1515 1516 1517 1519 1520 1522 1524 1526 1528 1530 1531 1533 1536 1538 1540 1543 1545 1548 1550
1518 1517 1515 1515 1514 1513 1512 1511 1510 1510 1509 1509 1510 1510 1511 1511 1511 1510 1511 1510 1511 1511 1512 1513 1514 1515 1517 1518 1519 1521 1523 1525 1527 1529 1531 1533 1535 1537 1540 1542 1545 1547 1550
1518 1517 1515 1514 1513 1512 1512 1511 1510 1509 1509 1509 1509 1510 1510 1510 1510 1510 1510 1511 1511 1511 1512 1512 1513 1514 1516 1517 1518 1520 1522 1524 1526 1528 1530 1532 1534 1537 1539 1541 1544 1546 1549
1517 1516 1515 1514 1513 1512 1511 1511 1510 1509 1509 1509 1509 1509 1509 1510 1510 1510 1510 1510 1510 1511 1511 1512 1512 1513 1515 1516 1517 1519 1521 1523 1525 1527 1529 1531 1533 1535 1538 1540 1542 1545 1547
1517 1516 1515 1514 1513 1512 1511 1510 1510 1509 1508 1508 1508 1508 1508 1509 1509 1509 1509 1509 1510 1510 1511 1511 1512 1513 1514 1515 1516 1517 1519 1521 1523 1525 1527 1529 1532 1534 1536 1538 1540 1543 1545
1517 1516 1515 1514 1513 1512 1511 1510 1509 1509 1508 1508 1507 1507 1507 1508 1508 1508 1509 1509 1509 1510 1510 1511 1511 1512 1512 1513 1514 1516 1517 1519 1521 1523 1525 1528 1530 1532 1534 1536 1538 1541 1543
1516 1515 1514 1513 1512 1511 1510 1510 1509 1508 1507 1507 1506 1506 1506 1506 1507 1507 1508 1508 1509 1509 1510 1510 1510 1511 1511 1512 1513 1514 1516 1517 1519 1521 1523 1525 1527 1530 1532 1534 1536 1538 1540
1515 1514 1514 1513 1512 1511 1510 1509 1508 1508 1507 1506 1506 1505 1505 1505 1506 1506 1506 1507 1508 1509 1508 1509 1510 1510 1510 1511 1512 1513 1514 1515 1517 1519 1521 1523 1525 1527 1529 1531 1534 1536 1538
1514 1513 1513 1512 1511 1511 1510 1509 1508 1507 1506 1505 1505 1504 1504 1504 1504 1504 1505 1505 1506 1507 1507 1508 1508 1509 1509 1510 1510 1511 1512 1513 1515 1517 1519 1521 1523 1525 1526 1528 1530 1532 1534
1512 1512 1512 1511 1510 1510 1509 1508 1507 1507 1506 1505 1504 1504 1503 1503 1503 1503 1503 1504 1504 1505 1506 1506 1507 1507 1508 1508 1509 1509 1510 1511 1513 1514 1516 1518 1520 1521 1523 1525 1527 1528 1530
1511 1510 1510 1509 1509 1508 1507 1507 1506 1505 1505 1504 1503 1503 1502 1502 1502 1502 1502 1502 1502 1503 1503 1504 1504 1505 1506 1506 1507 1508 1508 1509 1510 1512 1513 1515 1516 1518 1520 1522 1523 1525 1526
1509 1508 1508 1507 1507 1506 1506 1505 1504 1503 1503 1502 1502 1501 1501 1500 1500 1500 1500 1500 1500 1500 1501 1502 1502 1503 1504 1504 1505 1505 1506 1507 1508 1509 1510 1512 1513 1515 1516 1518 1519 1521 1522
1506 1506 1505 1505 1504 1504 1503 1502 1502 1501 1501 1500 1500 1500 1499 1499 1498 1498 1498 1498 1498 1498 1499 1499 1499 1500 1501 1501 1502 1503 1504 1505 1506 1506 1507 1509 1510 1511 1513 1514 1516 1517 1519
1503 1503 1503 1502 1502 1501 1500 1500 1499 1499 1498 1498 1497 1497 1496 1496 1496 1495 1495 1495 1496 1496 1496 1496 1497 1497 1498 1499 1500 1500 1501 1502 1503 1504 1505 1506 1507 1508 1509 1511 1512 1514 1516
1501 1500 1500 1499 1498 1498 1497 1497 1496 1496 1495 1495 1494 1494 1494 1493 1493 1492 1492 1492 1492 1492 1493 1493 1493 1494 1495 1495 1496 1497 1498 1499 1499 1501 1502 1502 1504 1505 1506 1507 1509 1511 1512
1498 1497 1496 1496 1495 1495 1494 1493 1493 1492 1491 1491 1491 1491 1490 1490 1489 1489 1488 1488 1488 1488 1489 1489 1489 1490 1491 1492 1493 1494 1495 1496 1497 1498 1499 1500 1501 1502 1503 1504 1506 1507 1509
1495 1494 1493 1493 1492 1491 1491 1490 1489 1488 1488 1487 1487 1487 1486 1486 1485 1485 1485 1484 1484 1484 1484 1485 1485 1486 1487 1487 1488 1490 1491 1492 1493 1494 1495 1496 1497 1499 1500 1501 1502 1504 1505
1492 1491 1490 1490 1489 1488 1487 1487 1486 1485 1484 1483 1482 1482 1482 1481 1481 1480 1480 1479 1479 1479 1480 1480 1480 1481 1481 1482 1483 1485 1486 1487 1488 1490 1491 1493 1493 1495 1496 1498 1499 1500 1501